Volver al catálogo

NIMBUS 2 DEB

ActivoSSO
NORAD 59969·DEBRIS·🇺🇸 United States

Lanzado May 15, 1966 desde Vandenberg Space Force Base

Loading…

Próximos Pases (próximas 24 horas)

TLE

ActualizadoSource: Space-Track

Época: Sep 14, 2026, 09:42 UTC

1 59969U 66040BY  26257.40437004  .00002010  00000-0  33476-2 0  9996
2 59969 100.1640  67.8966 0046869 325.2513  34.5560 13.47363653374668

Sigue NIMBUS 2 DEB en tiempo real con AllMySat

Download on the App Store